STARLINK-1396 (45681 NORAD) Tracking and Keplerian Element Data

This shows tracking and keplerian element data for the satellite.

Feedback or suggestion? Click here.




ElementValue
Catalog45681
NameSTARLINK-1396
Epoch Orbit181
Epoch Day191.91670139
Epoch Year2020
RAAN353.4715
Inclination52.9992
Eccentricity0.0001287
Argument of Perigee65.272
Mean Anonmoly163.0314
Mean Motion15.62722993
Decay Rate0.00058246
L11 45681U 20035AA 20191.91670139 .00058246 00000-0 63812-3 0 9991
L22 45681 52.9992 353.4715 0001287 65.2720 163.0314 15.62722993 1814

Live tracking and technical data element details for STARLINK-1396 (NORAD 45681). STARLINK-1396 can be tracked NOW for your location showing map with azimuth and elevation plus other details from your city location.

Track the satellite on the map from your city or location and see movement details for azimuth, elevation, latitude, longitude, range, height, and movement on the map or in text.







IsCatalogInMostPopularTable: catalog: 45681, numindb: 7
Update: records affected: 1



GetName: 45681 STARLINK-1396

Hit Count: updated at: Fri, 10 Jul 2020 14:54:05 GMT